Voltar ao catálogo

STARLINK-36796

AtivoComunicaçõesSSO
NORAD 67722·PAYLOAD·🇺🇸 United States

Lançado Feb 11, 2026 de Vandenberg Space Force Base

Loading…

Próximas Passagens (próximas 24 horas)

TLE

AtualizadoSource: CelesTrak SupGP

Época: Sep 15, 2026, 03:11 UTC

1 67722C 26026B   26258.13312500 -.00001919  00000+0 -59582-4 0  2580
2 67722  97.2845 309.9746 0000974  91.2126 271.8182 15.33441462    13

Acompanhe STARLINK-36796 em tempo real com AllMySat

Download on the App Store